Showing default

LILACSAT 2, 40908

Orbit data source: Space-Track

LILACSAT 2, 40908 is a payload satellite owned by Harbin (CN) in SSO that was launched on Sat, 19 Sep 2015 UTC via a CHANG ZHENG 6 launch vehicle from the Taiyaun Space Center, China (TSC). Payloads include a variety of satellites, spacecraft, and rockets equipped with specific instruments for various scientific and technological missions. These include communications satellites like Starlink; space stations such as the ISS; scientific satellites like the Hubble; Earth observation satellites from companies like Planet Labs, Umbra, and HawkEye 360; GPS; miniature CubeSats for education and research; and military/defense satellites.

Loading next visibility...
LILACSAT 2 details
Identifier
40908, 2015-049K
Orbit
SSO
Last TLE update9 hours ago
Origin
Flag of CNHarbin (CN / PRC)
ManufacturerHarbin
MissionOperational Amateur Communications
Bus & MotorCAS-3H, Unknown motor
Mass11 kg wet, 11 kg dry
Launch date (UTC)
2015-09-19 (9 years ago)
Launch vehicle
CHANG ZHENG 6
Launch site
Taiyaun Space Center, China (TSC)
Object type
Payload
Rocket body
Debris
Shape & HBRBox, 0.2 m
Radar Cross Section0.060 m², Small (<0.1 m²)

Expand to show TLE details & history

TLE from 9 hours ago
0 LILACSAT 2
1 40908U 15049K   24361.54600704  .00018813  00000-0  58923-3 0  9993
2 40908  97.5184  12.4822 0012061  38.6800 321.5303 15.33075425512898
Epoch: 2024-12-26T13:06Z
Definitive object data (Epoch: 2024-12-26T13:06:15.008Z)
Latitude-0.00005°
Longitude80.39582°
Altitude463.287 km
Speed7.638 km/s
True Right ascension00h 49m 55s
True Declination0° 00' 00"
Sunlit
Object was in daylight at TLE epoch
Visualization TLE readout
Latitude-22.3673°
Longitude-102.33124°
Altitude483.128 km
Speed7.618 km/s
Apparent Right ascension11h 09m 49s
Apparent Declination-33° 19' 38"
Sunlit
Object is in daylight
Visualization observer readout
Local Sidereal Time21:12:00
Azimuth276.313° WNW
Elevation-65.584°
Doppler factor1
Orbital elements
Apogee altitude471.848 km
Perigee altitude455.344 km
Semi-major axis6,841.733 km
Eccentricity0.0012061
Inclination97.5184°
RAAN12.4822°
Arg. of periapsis38.68°
True anomaly321.44422°
Mean anomaly321.5303°
Eccentric anomaly321.48727°
Mean motion3.83525 °/min
BSTAR0.00058923
Orbital period93.87 mins
Loading maneuver chart data...
Loading historical data...
Loading historical data...
Loading historical data...
Loading historical data...
Loading historical data...
Loading historical data...
Loading historical data...

LILACSAT 2 Visibility forecast

Observer location: undefined°, undefined

Span
Click to sort rows by Start time (UTC) header in descending order
Start Az.
Max El. time (UTC)
Max El. Az.
Max El.
End time (UTC)
End Az.
4 mins2024-12-27 00:12:57.252Z115.686° SE2024-12-27 00:14:57.252Z78.754° E18.29°2024-12-27 00:16:57.252Z34.076° NE
|